Location: Newark
(34.1333°N, 7.9667°W)
Time: 14:07:45
(UTC+00:00)

S-56A Canister/Altair - Pass Details

Date: 04 December 2021
Orbit: 634 x 2499 km, 38.9° (Epoch: 25 January)

Event Time Altitude Azimuth Distance (km) Brightness Sun altitude
Rises 22:25:38 0° 222° (SW) 5,914 12.2 -61.9°
Reaches altitude 10° 22:30:00 10° 218° (SW) 4,713 11.6 -62.7°
Enters shadow 22:30:08 10° 218° (SW) 4,673 11.5 -62.8°
